CW5391 Weather Reports


Display with metric or nautical units.
time (UTC)temp
F
wind
direction
speed
MPH
gust
MPH
rain 1hr
in
rain 24hr
in
rain mn
in
humidity
%
barometer
mb
20260903112824 66 166 0.0 2.0 0.00 0.00 0.00 95 1010.5
20260903112330 65 128 0.0 3.0 0.00 0.00 0.00 95 1010.5
20260903111829 65 196 0.0 3.0 0.00 0.00 0.00 95 1010.5
20260903111319 65 196 0.0 3.0 0.00 0.00 0.00 95 1010.6
20260903110824 65 217 0.0 0.0 0.00 0.00 0.00 95 1010.6
20260903110338 65 217 0.0 5.0 0.00 0.00 0.00 95 1010.6
20260903105826 65 217 0.0 5.0 0.00 0.00 0.00 95 1010.4
20260903105339 65 257 0.0 5.0 0.00 0.00 0.00 94 1010.4
20260903104829 65 98 1.0 5.0 0.00 0.00 0.00 95 1010.4
20260903104320 65 248 1.0 5.0 0.00 0.00 0.00 94 1010.5
20260903103812 65 119 1.0 5.0 0.00 0.00 0.00 94 1010.5
20260903103340 65 157 1.0 5.0 0.00 0.00 0.00 94 1010.5
20260903102820 65 177 1.0 3.0 0.00 0.00 0.00 94 1010.6
20260903102328 65 144 0.0 3.0 0.00 0.00 0.00 94 1010.6
20260903101816 65 191 0.0 4.0 0.00 0.00 0.00 94 1010.6
20260903101326 65 150 1.0 4.0 0.00 0.00 0.00 94 1010.3
20260903100851 65 199 1.0 4.0 0.00 0.00 0.00 94 1010.3
20260903100335 65 200 1.0 4.0 0.00 0.00 0.00 94 1010.3
20260903095840 65 225 1.0 3.0 0.00 0.00 0.00 94 1010.1
20260903095319 65 185 1.0 3.0 0.00 0.00 0.00 94 1010.1
20260903094821 65 202 1.0 3.0 0.00 0.00 0.00 94 1010.1
20260903094355 65 209 1.0 4.0 0.00 0.00 0.00 94 1010.2
20260903093824 65 178 1.0 4.0 0.00 0.00 0.00 93 1010.2
20260903093325 65 186 2.0 4.0 0.00 0.00 0.00 93 1010.2
20260903092835 65 180 1.0 5.0 0.00 0.00 0.00 93 1010.2
20260903092317 65 179 1.0 5.0 0.00 0.00 0.00 92 1010.2
20260903091822 66 169 1.0 3.0 0.00 0.00 0.00 92 1010.2
20260903091328 66 192 0.0 2.0 0.00 0.00 0.00 92 1010.4
20260903090837 66 144 0.0 2.0 0.00 0.00 0.00 91 1010.4
20260903090311 66 168 1.0 3.0 0.00 0.00 0.00 91 1010.4
20260903085822 66 107 1.0 3.0 0.00 0.00 0.00 90 1010.5
20260903085332 66 142 1.0 5.0 0.00 0.00 0.00 90 1010.5
20260903084856 66 188 1.0 5.0 0.00 0.00 0.00 90 1010.5
20260903084326 66 130 1.0 4.0 0.00 0.00 0.00 90 1010.6
20260903083834 66 121 1.0 4.0 0.00 0.00 0.00 90 1010.6
20260903083327 66 225 2.0 5.0 0.00 0.00 0.00 90 1010.6
20260903082813 66 173 2.0 7.0 0.00 0.00 0.00 89 1010.3
20260903082332 66 148 2.0 7.0 0.00 0.00 0.00 89 1010.3
20260903081818 66 183 2.0 7.0 0.00 0.00 0.00 89 1010.3
20260903081323 66 171 2.0 7.0 0.00 0.00 0.00 89 1010.6
20260903080830 66 161 2.0 6.0 0.00 0.00 0.00 89 1010.6
20260903080328 66 175 2.0 6.0 0.00 0.00 0.00 88 1010.6
20260903075843 66 179 2.0 6.0 0.00 0.00 0.00 88 1010.6
20260903075319 66 161 2.0 7.0 0.00 0.00 0.00 88 1010.6
20260903074825 66 123 2.0 7.0 0.00 0.00 0.00 88 1010.6
20260903074327 66 150 2.0 7.0 0.00 0.00 0.00 88 1010.6
20260903073850 66 178 2.0 7.0 0.00 0.00 0.00 88 1010.6
20260903073333 66 205 3.0 7.0 0.00 0.00 0.00 88 1010.6
20260903072845 66 130 2.0 6.0 0.00 0.00 0.00 88 1010.6
20260903072336 66 203 2.0 5.0 0.00 0.00 0.00 88 1010.6
20260903071833 66 155 2.0 6.0 0.00 0.00 0.00 88 1010.6
20260903071336 66 170 2.0 6.0 0.00 0.00 0.00 88 1010.6
20260903070843 66 167 3.0 6.0 0.00 0.00 0.00 88 1010.6
20260903070324 66 169 2.0 6.0 0.00 0.00 0.00 88 1010.6
20260903065841 66 163 2.0 7.0 0.00 0.00 0.00 88 1010.7
20260903065319 65 159 2.0 5.0 0.00 0.00 0.00 88 1010.7
20260903064825 65 163 2.0 5.0 0.00 0.00 0.00 88 1010.7
20260903064327 65 159 2.0 5.0 0.00 0.00 0.00 88 1010.8
20260903063853 65 169 2.0 5.0 0.00 0.00 0.00 89 1010.8
20260903063338 65 157 2.0 5.0 0.00 0.00 0.00 88 1010.8
20260903062821 65 156 2.0 5.0 0.00 0.00 0.00 88 1010.7
20260903062350 65 191 2.0 4.0 0.00 0.00 0.00 88 1010.7
20260903061817 65 140 1.0 5.0 0.00 0.00 0.00 88 1010.7
20260903061334 65 192 2.0 5.0 0.00 0.00 0.00 88 1011.0
20260903060831 65 201 2.0 5.0 0.00 0.00 0.00 88 1011.0
20260903060323 65 200 2.0 4.0 0.00 0.00 0.00 87 1011.0
20260903055824 65 154 1.0 4.0 0.00 0.00 0.00 88 1011.2
20260903055320 66 142 1.0 3.0 0.00 0.00 0.00 87 1011.2
20260903054831 66 132 1.0 9.0 0.00 0.00 0.00 86 1011.2
20260903054316 66 164 2.0 8.0 0.00 0.00 0.00 86 1011.4
20260903053820 66 148 2.0 5.0 0.00 0.00 0.00 85 1011.4
20260903053346 66 185 2.0 6.0 0.00 0.00 0.00 85 1011.4
20260903052830 66 217 2.0 6.0 0.00 0.00 0.00 85 1011.7
20260903052336 66 227 2.0 6.0 0.00 0.00 0.00 84 1011.7
20260903051829 66 186 3.0 6.0 0.00 0.00 0.00 84 1011.7
20260903051318 66 118 3.0 8.0 0.00 0.00 0.00 83 1011.7
20260903050846 66 170 3.0 7.0 0.00 0.00 0.00 84 1011.7
20260903050350 66 137 3.0 9.0 0.00 0.00 0.00 84 1011.7
20260903045831 66 186 4.0 10.0 0.00 0.00 0.00 83 1011.6
20260903045316 66 227 4.0 8.0 0.00 0.00 0.00 83 1011.6
20260903044839 66 174 3.0 8.0 0.00 0.00 0.00 84 1011.6
20260903044322 66 162 4.0 9.0 0.00 0.00 0.00 83 1011.4
20260903043818 66 202 3.0 9.0 0.00 0.00 0.00 83 1011.4
20260903043320 66 235 4.0 7.0 0.00 0.00 0.00 83 1011.4
20260903042833 65 159 3.0 7.0 0.00 0.00 0.00 82 1011.7
20260903042340 65 169 3.0 5.0 0.00 0.00 0.00 82 1011.7
20260903041822 65 138 2.0 5.0 0.00 0.00 0.00 83 1011.7
20260903041326 65 173 2.0 6.0 0.00 0.00 0.00 82 1011.8
20260903040838 65 153 2.0 4.0 0.00 0.00 0.00 82 1011.8
20260903040329 65 151 2.0 4.0 0.00 0.00 0.00 83 1011.8
20260903035831 66 158 1.0 6.0 0.00 0.00 0.00 83 1011.7
20260903035338 66 194 2.0 7.0 0.00 0.00 0.00 82 1011.7
20260903034840 66 198 3.0 8.0 0.00 0.00 0.00 81 1011.7
20260903034341 66 150 3.0 8.0 0.00 0.00 0.00 81 1011.6
20260903033832 65 269 4.0 8.0 0.00 0.00 0.00 80 1011.6
20260903033340 65 182 2.0 8.0 0.00 0.00 0.00 82 1011.6
20260903032824 65 190 2.0 4.0 0.00 0.00 0.00 83 1012.2
20260903032328 65 185 1.0 6.0 0.00 0.00 0.00 82 1012.2
20260903031832 66 186 2.0 6.0 0.00 0.00 0.00 80 1012.2
20260903031337 65 130 1.0 5.0 0.00 0.00 0.00 80 1012.7
20260903030817 65 128 0.0 2.0 0.00 0.00 0.00 81 1012.7
20260903030321 66 128 1.0 2.0 0.00 0.00 0.00 82 1012.7
20260903025823 66 168 1.0 2.0 0.00 0.00 0.00 81 1012.8
20260903025330 66 133 1.0 2.0 0.00 0.00 0.00 83 1012.8
20260903024824 66 151 1.0 7.0 0.00 0.00 0.00 84 1012.8
20260903024343 66 240 2.0 7.0 0.00 0.00 0.00 83 1012.7
20260903023815 66 136 2.0 5.0 0.00 0.00 0.00 83 1012.7
20260903023349 66 164 1.0 5.0 0.00 0.00 0.00 81 1012.7
20260903022832 66 171 1.0 5.0 0.00 0.00 0.00 82 1012.7
20260903022316 66 180 2.0 8.0 0.00 0.00 0.00 82 1012.7
20260903021840 66 144 3.0 8.0 0.00 0.00 0.00 83 1012.7
20260903021325 66 142 3.0 8.0 0.00 0.00 0.00 84 1013.3
20260903020823 66 167 2.0 5.0 0.00 0.00 0.00 84 1013.3
20260903020331 66 153 2.0 5.0 0.00 0.00 0.00 84 1013.3
20260903015844 66 161 2.0 3.0 0.00 0.00 0.00 83 1013.7
20260903015335 66 146 2.0 3.0 0.00 0.00 0.00 86 1013.7
20260903014815 66 155 1.0 3.0 0.00 0.00 0.00 85 1013.7
20260903014314 66 176 1.0 2.0 0.00 0.00 0.00 85 1014.0
20260903013820 66 144 1.0 4.0 0.00 0.00 0.00 85 1014.0
20260903013324 66 147 1.0 3.0 0.00 0.00 0.00 86 1014.0
20260903012827 66 132 1.0 3.0 0.00 0.00 0.00 86 1013.8
20260903012333 66 119 1.0 3.0 0.00 0.00 0.00 86 1013.8
20260903011827 66 129 0.0 2.0 0.00 0.00 0.00 87 1013.8
20260903011316 65 151 0.0 2.0 0.00 0.00 0.00 87 1013.7
20260903010827 65 151 1.0 3.0 0.00 0.00 0.00 87 1013.7
20260903010336 65 162 1.0 3.0 0.00 0.00 0.00 88 1013.7
20260903005818 65 183 1.0 3.0 0.00 0.00 0.00 88 1013.8
20260903005327 65 163 1.0 2.0 0.00 0.00 0.00 88 1013.8
20260903004819 65 137 0.0 2.0 0.00 0.00 0.00 87 1013.8
20260903004324 65 137 0.0 2.0 0.00 0.00 0.00 87 1013.8
20260903003828 65 137 0.0 2.0 0.00 0.00 0.00 88 1013.8
20260903003318 65 137 1.0 2.0 0.00 0.00 0.00 88 1013.8
20260903002821 65 53 0.0 2.0 0.00 0.00 0.00 87 1013.4
20260903002313 66 53 1.0 2.0 0.00 0.00 0.00 87 1013.4
20260903001825 66 53 1.0 2.0 0.00 0.00 0.00 87 1013.4
20260903001331 66 123 0.0 3.0 0.00 0.00 0.00 88 1012.7
20260903000815 66 123 2.0 3.0 0.00 0.00 0.00 85 1012.7
20260903000342 66 138 1.0 3.0 0.00 0.00 0.00 86 1012.7
20260902235828 66 227 0.0 2.0 0.00 0.00 0.00 85 1012.7
20260902235343 67 252 1.0 6.0 0.00 0.00 0.00 84 1012.7
20260902234826 66 169 1.0 6.0 0.00 0.00 0.00 84 1012.7
20260902234319 66 225 1.0 4.0 0.00 0.00 0.00 84 1012.5
20260902233817 67 178 2.0 5.0 0.00 0.00 0.00 84 1012.5
20260902233321 67 136 2.0 7.0 0.00 0.00 0.00 83 1012.5
20260902232831 66 246 2.0 7.0 0.00 0.00 0.00 84 1013.1
20260902232315 67 235 2.0 5.0 0.00 0.00 0.00 84 1013.1
20260902231823 67 207 2.0 7.0 0.00 0.00 0.00 84 1013.1
20260902231327 67 185 3.0 7.0 0.00 0.00 0.00 84 1013.8
20260902230815 67 250 2.0 6.0 0.00 0.00 0.00 83 1013.8
20260902230325 67 170 1.0 6.0 0.00 0.00 0.00 86 1013.8
20260902225837 67 167 2.0 6.0 0.00 0.00 0.00 83 1014.3
20260902225321 67 205 1.0 3.0 0.00 0.00 0.00 85 1014.3
20260902224833 67 138 1.0 3.0 0.00 0.00 0.00 86 1014.3
20260902224321 67 229 1.0 3.0 0.00 0.00 0.00 86 1014.8
20260902223832 67 178 1.0 3.0 0.00 0.00 0.00 85 1014.8
20260902223325 67 111 0.0 2.0 0.00 0.00 0.00 86 1014.8
20260902222815 67 157 0.0 2.0 0.00 0.00 0.00 86 1014.9
20260902222344 67 172 1.0 3.0 0.00 0.00 0.00 84 1014.9
20260902221813 67 98 1.0 3.0 0.00 0.00 0.00 84 1014.9
20260902221318 67 298 1.0 5.0 0.00 0.00 0.00 86 1015.0
20260902220824 67 70 1.0 5.0 0.00 0.00 0.00 84 1015.0
20260902220317 67 119 1.0 5.0 0.00 0.00 0.00 84 1015.0
20260902215824 67 121 1.0 2.0 0.00 0.00 0.00 84 1014.9
20260902215329 67 115 0.0 3.0 0.00 0.00 0.00 86 1014.9
20260902214833 68 138 1.0 3.0 0.00 0.00 0.00 84 1014.9
20260902214323 68 140 1.0 3.0 0.00 0.00 0.00 85 1015.3
20260902213822 68 162 1.0 3.0 0.00 0.00 0.00 86 1015.3
20260902213329 68 131 1.0 3.0 0.00 0.00 0.00 83 1015.3
20260902212816 68 262 0.0 1.0 0.00 0.00 0.00 87 1015.4
20260902212324 68 111 0.0 0.0 0.00 0.00 0.00 86 1015.4
20260902211824 68 111 0.0 0.0 0.00 0.00 0.00 86 1015.4
20260902211344 68 111 0.0 2.0 0.00 0.00 0.00 83 1015.2
20260902210855 68 111 0.0 3.0 0.00 0.00 0.00 85 1015.2
20260902210329 68 113 1.0 3.0 0.00 0.00 0.00 82 1015.2
20260902205844 69 126 1.0 4.0 0.00 0.00 0.00 83 1015.2
20260902205323 69 216 1.0 4.0 0.00 0.00 0.00 84 1015.2
20260902204828 69 196 1.0 4.0 0.00 0.00 0.00 82 1015.2
20260902204328 69 88 1.0 4.0 0.00 0.00 0.00 81 1015.0
20260902203841 69 147 1.0 4.0 0.00 0.00 0.00 81 1015.0
20260902203314 69 204 1.0 8.0 0.00 0.00 0.00 80 1015.0
20260902202822 69 85 2.0 8.0 0.00 0.00 0.00 80 1015.0
20260902202350 69 111 2.0 8.0 0.00 0.00 0.00 79 1015.0
20260902201813 70 179 3.0 8.0 0.00 0.00 0.00 80 1015.0
20260902201317 70 245 4.0 8.0 0.00 0.00 0.00 78 1014.9
20260902200823 70 190 4.0 8.0 0.00 0.00 0.00 79 1014.9
20260902200316 70 246 3.0 7.0 0.00 0.00 0.00 80 1014.9
20260902195824 70 206 3.0 6.0 0.00 0.00 0.00 82 1015.1
20260902195329 70 186 2.0 6.0 0.00 0.00 0.00 82 1015.1
20260902194820 69 148 3.0 6.0 0.00 0.00 0.00 80 1015.1
20260902194337 69 210 2.0 6.0 0.00 0.00 0.00 80 1015.3
20260902193840 69 177 1.0 2.0 0.00 0.00 0.00 85 1015.3
20260902193336 69 240 0.0 2.0 0.00 0.00 0.00 86 1015.3
20260902192855 69 148 0.0 1.0 0.00 0.00 0.00 86 1015.5
20260902192342 69 148 0.0 1.0 0.00 0.00 0.00 86 1015.5
20260902191855 69 148 0.0 1.0 0.00 0.00 0.00 85 1015.5
20260902191348 69 148 0.0 1.0 0.00 0.00 0.00 85 1015.9
20260902190834 69 128 0.0 2.0 0.00 0.00 0.00 86 1015.9
20260902190328 69 101 0.0 2.0 0.00 0.01 0.00 85 1015.9
20260902185847 69 101 0.0 2.0 0.00 0.01 0.00 84 1016.1
20260902185326 69 130 0.0 2.0 0.00 0.01 0.00 84 1016.1
20260902184815 69 111 0.0 2.0 0.00 0.01 0.00 83 1016.1
20260902184323 70 136 1.0 6.0 0.00 0.01 0.00 81 1015.9
20260902183849 70 125 1.0 6.0 0.00 0.01 0.00 84 1015.9
20260902183331 70 113 2.0 5.0 0.00 0.01 0.00 79 1015.9
20260902182834 70 242 2.0 5.0 0.00 0.01 0.00 76 1015.9
20260902182317 71 162 1.0 5.0 0.00 0.01 0.00 76 1015.9
20260902181845 71 286 1.0 4.0 0.00 0.01 0.00 82 1015.9
20260902181316 72 211 2.0 4.0 0.00 0.01 0.00 83 1015.9
20260902180849 72 360 1.0 3.0 0.00 0.01 0.00 82 1015.9
20260902180340 71 273 1.0 3.0 0.00 0.01 0.00 82 1015.9
20260902175835 71 123 1.0 2.0 0.00 0.01 0.00 80 1015.9
20260902175314 70 172 0.0 2.0 0.00 0.01 0.00 81 1015.9
20260902174809 70 252 0.0 3.0 0.00 0.01 0.00 81 1015.9
20260902174322 70 252 1.0 3.0 0.00 0.01 0.00 79 1016.0
20260902173834 70 106 1.0 3.0 0.00 0.01 0.00 80 1016.0
20260902173317 70 159 1.0 3.0 0.00 0.01 0.00 81 1016.0
20260902172822 71 80 1.0 3.0 0.00 0.01 0.00 80 1016.0
20260902172335 71 209 0.0 3.0 0.00 0.01 0.00 81 1016.0
20260902171817 71 192 0.0 3.0 0.00 0.01 0.00 82 1016.0
20260902171322 71 253 1.0 3.0 0.00 0.01 0.00 80 1015.9
20260902170833 70 272 0.0 2.0 0.00 0.01 0.00 82 1015.9
20260902170326 70 269 1.0 3.0 0.00 0.01 0.00 80 1015.9
20260902165832 70 176 0.0 3.0 0.00 0.01 0.00 81 1016.2
20260902165324 70 234 0.0 7.0 0.00 0.01 0.00 79 1016.2
20260902164818 70 290 2.0 7.0 0.00 0.01 0.00 78 1016.2
20260902164335 70 243 3.0 7.0 0.00 0.01 0.00 76 1016.0
20260902163902 70 143 4.0 7.0 0.00 0.01 0.00 74 1016.0
20260902163315 70 152 3.0 5.0 0.00 0.01 0.00 75 1016.0
20260902162824 70 221 2.0 7.0 0.00 0.01 0.00 79 1016.3
20260902162328 69 55 2.0 7.0 0.00 0.01 0.00 80 1016.3
20260902161836 69 136 1.0 5.0 0.00 0.01 0.00 78 1016.3
20260902161322 68 209 2.0 5.0 0.00 0.01 0.00 79 1016.4
20260902160814 68 105 2.0 7.0 0.00 0.01 0.00 79 1016.4
20260902160326 68 142 3.0 6.0 0.00 0.04 0.00 79 1016.4
20260902155812 68 161 2.0 5.0 0.00 0.04 0.00 79 1016.5
20260902155320 68 172 1.0 8.0 0.00 0.04 0.00 79 1016.5
20260902154843 68 121 2.0 8.0 0.00 0.04 0.00 79 1016.5
20260902154317 68 237 2.0 6.0 0.00 0.04 0.00 77 1017.0
20260902153859 68 288 2.0 6.0 0.00 0.04 0.00 78 1017.0
20260902153312 68 253 2.0 6.0 0.00 0.04 0.00 79 1017.0
20260902152818 68 186 3.0 7.0 0.00 0.04 0.00 78 1016.9
20260902152321 68 209 2.0 9.0 0.00 0.04 0.00 78 1016.9
20260902151825 67 46 3.0 9.0 0.00 0.04 0.00 79 1016.9
20260902151330 67 199 2.0 9.0 0.00 0.04 0.00 79 1017.0
20260902150824 67 39 2.0 9.0 0.00 0.04 0.00 78 1017.0
20260902150327 67 234 2.0 7.0 0.00 0.08 0.00 79 1017.0
20260902145816 67 163 3.0 7.0 0.00 0.08 0.00 78 1016.9
20260902145338 68 198 2.0 7.0 0.00 0.08 0.00 78 1016.9
20260902144842 68 130 2.0 5.0 0.00 0.08 0.00 80 1016.9
20260902144336 68 166 2.0 4.0 0.00 0.08 0.00 82 1017.2
20260902143818 67 228 1.0 4.0 0.00 0.08 0.00 81 1017.2
20260902143325 67 59 1.0 4.0 0.00 0.08 0.00 80 1017.2
20260902142828 67 171 1.0 6.0 0.00 0.08 0.00 80 1017.0
20260902142324 67 242 327.0 7.0 0.00 0.08 0.00 81 1017.0
20260902141815 0 0.0 0.0 0.00 0.08 0.00 1017.0
20260902141318 0 0.0 0.0 0.00 0.08 0.00 1017.1
20260902140822 0 0.0 0.0 0.00 0.08 0.00 1017.1
20260902140324 0 0.0 0.0 0.00 0.08 0.00 1017.1
20260902135842 0 0.0 0.0 0.00 0.08 0.00 1017.0
20260902135332 0 0.0 0.0 0.00 0.08 0.00 1017.0
20260902134852 0 0.0 0.0 0.00 0.08 0.00 1017.0
20260902134327 0 0.0 0.0 0.00 0.08 0.00 1016.5
20260902133851 0 0.0 0.0 0.00 0.08 0.00 1016.5
20260902133333 0 0.0 0.0 0.00 0.08 0.00 1016.5
20260902132843 0 0.0 0.0 0.00 0.08 0.00 1016.4
20260902132336 0 0.0 0.0 0.00 0.08 0.00 1016.4
20260902131839 0 0.0 0.0 0.00 0.08 0.00 1016.4
20260902131342 0 0.0 0.0 0.00 0.08 0.00 1016.1
20260902130825 0 0.0 0.0 0.00 0.08 0.00 1016.1
20260902130328 0 0.0 0.0 0.00 0.08 0.00 1016.1
20260902125835 0 0.0 0.0 0.00 0.08 0.00 1016.3
20260902125333 0 0.0 0.0 0.00 0.08 0.00 1016.3
20260902124817 0 0.0 0.0 0.00 0.08 0.00 1016.3
20260902124321 0 0.0 0.0 0.00 0.08 0.00 1016.2
20260902123833 0 0.0 0.0 0.00 0.08 0.00 1016.2
20260902123351 0 0.0 0.0 0.00 0.08 0.00 1016.2
20260902122829 0 0.0 0.0 0.00 0.08 0.00 1016.2
20260902122332 0 0.0 0.0 0.00 0.08 0.00 1016.2
20260902121818 0 0.0 0.0 0.00 0.08 0.00 1016.2
20260902121328 0 0.0 0.0 0.00 0.08 0.00 1015.9
20260902120833 0 0.0 0.0 0.00 0.08 0.00 1015.9
20260902115817 0 0.0 0.0 0.00 0.09 0.00 1016.0
20260902115320 0 0.0 0.0 0.00 0.09 0.00 1016.0
20260902114844 0 0.0 0.0 0.00 0.09 0.00 1016.0
20260902114338 0 0.0 0.0 0.00 0.09 0.00 1016.4
20260902113820 0 0.0 0.0 0.00 0.09 0.00 1016.4
20260902113323 0 0.0 0.0 0.00 0.09 0.00 1016.4